Hourly Weather Aarle

Today, 31 October, Saturday

Time Temperature Precipitation Wind Pressure Humidity
00:00 +14°C° 0 mm 4 mps 765 mmHg 81%
01:00 +14°C° 0 mm 4 mps 765 mmHg 82%
02:00 +13°C° 0 mm 3 mps 764 mmHg 82%
03:00 +13°C° 0 mm 3 mps 764 mmHg 83%
04:00 +12°C° 0 mm 3 mps 764 mmHg 85%
05:00 +12°C° 0 mm 3 mps 764 mmHg 88%
06:00 +11°C° 0 mm 3 mps 764 mmHg 87%
07:00 +11°C° 0 mm 4 mps 763 mmHg 83%
08:00 +12°C° 0 mm 4 mps 763 mmHg 80%
09:00 +13°C° 0 mm 5 mps 763 mmHg 76%
10:00 +14°C° 0 mm 5 mps 762 mmHg 73%
11:00 +15°C° 0 mm 6 mps 761 mmHg 70%
12:00 +15°C° 0 mm 6 mps 761 mmHg 67%
13:00 +15°C° 0 mm 6 mps 760 mmHg 68%
14:00 +15°C° 0 mm 5 mps 759 mmHg 69%
15:00 +15°C° 0 mm 5 mps 759 mmHg 70%
16:00 +15°C° 0.2 mm 5 mps 759 mmHg 74%
17:00 +14°C° 0.2 mm 5 mps 758 mmHg 77%
18:00 +14°C° 0.2 mm 6 mps 758 mmHg 80%
19:00 +14°C° 0.4 mm 6 mps 758 mmHg 81%
20:00 +14°C° 0.4 mm 6 mps 758 mmHg 82%
21:00 +14°C° 0.4 mm 5 mps 759 mmHg 84%
22:00 +13°C° 0 mm 5 mps 759 mmHg 84%
23:00 +12°C° 0 mm 4 mps 759 mmHg 85%

Tomorrow, 1 November, Sunday

Time Temperature Precipitation Wind Pressure Humidity
00:00 +11°C° 0 mm 3 mps 759 mmHg 86%
01:00 +11°C° 0 mm 3 mps 759 mmHg 86%
02:00 +11°C° 0 mm 3 mps 758 mmHg 87%
03:00 +11°C° 0 mm 3 mps 758 mmHg 87%
04:00 +11°C° 0.2 mm 3 mps 758 mmHg 87%
05:00 +11°C° 0.2 mm 4 mps 757 mmHg 87%
06:00 +11°C° 0.2 mm 4 mps 757 mmHg 87%
07:00 +10°C° 0.9 mm 5 mps 756 mmHg 89%
08:00 +10°C° 0.9 mm 5 mps 755 mmHg 90%
09:00 +11°C° 0.9 mm 6 mps 755 mmHg 92%
10:00 +13°C° 0.9 mm 6 mps 754 mmHg 91%
11:00 +14°C° 0.9 mm 7 mps 753 mmHg 91%
12:00 +15°C° 0.9 mm 8 mps 752 mmHg 91%
13:00 +16°C° 0.2 mm 8 mps 753 mmHg 88%
14:00 +16°C° 0.2 mm 8 mps 753 mmHg 85%
15:00 +17°C° 0.2 mm 8 mps 753 mmHg 82%
16:00 +15°C° 0 mm 7 mps 754 mmHg 81%
17:00 +14°C° 0 mm 7 mps 755 mmHg 81%
18:00 +13°C° 0 mm 6 mps 755 mmHg 81%
19:00 +13°C° 0.1 mm 6 mps 755 mmHg 82%
20:00 +13°C° 0.1 mm 5 mps 756 mmHg 84%
21:00 +12°C° 0.1 mm 5 mps 756 mmHg 85%
22:00 +13°C° 0.7 mm 5 mps 755 mmHg 88%
23:00 +14°C° 0.7 mm 5 mps 755 mmHg 92%

Day after tomorrow, 2 November, Monday

Time Temperature Precipitation Wind Pressure Humidity
00:00 +15°C° 0.7 mm 5 mps 755 mmHg 95%
01:00 +16°C° 0.1 mm 6 mps 754 mmHg 93%
02:00 +16°C° 0.1 mm 6 mps 754 mmHg 91%
03:00 +17°C° 0.1 mm 7 mps 753 mmHg 90%
04:00 +17°C° 0.1 mm 7 mps 753 mmHg 89%
05:00 +17°C° 0.1 mm 8 mps 753 mmHg 89%
06:00 +17°C° 0.1 mm 9 mps 753 mmHg 88%
07:00 +17°C° 0 mm 8 mps 753 mmHg 84%
08:00 +17°C° 0 mm 8 mps 753 mmHg 80%
09:00 +17°C° 0 mm 8 mps 753 mmHg 77%
10:00 +18°C° 0 mm 9 mps 753 mmHg 75%
11:00 +19°C° 0 mm 9 mps 753 mmHg 73%
12:00 +21°C° 0 mm 10 mps 753 mmHg 71%
13:00 +19°C° 0.1 mm 10 mps 753 mmHg 73%
14:00 +19°C° 0.1 mm 9 mps 753 mmHg 75%
15:00 +18°C° 0.1 mm 9 mps 753 mmHg 76%
16:00 +16°C° 0.6 mm 9 mps 754 mmHg 77%
17:00 +15°C° 0.6 mm 8 mps 755 mmHg 78%
18:00 +12°C° 0.6 mm 8 mps 756 mmHg 79%
19:00 +12°C° 0 mm 7 mps 757 mmHg 77%
20:00 +11°C° 0 mm 7 mps 758 mmHg 75%
21:00 +11°C° 0 mm 6 mps 759 mmHg 72%
22:00 +10°C° 0 mm 6 mps 759 mmHg 73%
23:00 +10°C° 0 mm 6 mps 759 mmHg 74%

3 November, Tuesday

Time Temperature Precipitation Wind Pressure Humidity
00:00 +9°C° 0 mm 7 mps 760 mmHg 74%
01:00 +9°C° 0 mm 7 mps 760 mmHg 74%
02:00 +8°C° 0 mm 7 mps 761 mmHg 73%
03:00 +8°C° 0 mm 7 mps 761 mmHg 73%
04:00 +8°C° 0 mm 7 mps 762 mmHg 73%
05:00 +8°C° 0 mm 6 mps 762 mmHg 73%
06:00 +7°C° 0 mm 6 mps 763 mmHg 73%
07:00 +8°C° 0 mm 7 mps 764 mmHg 71%
08:00 +8°C° 0 mm 7 mps 764 mmHg 70%
09:00 +9°C° 0 mm 7 mps 765 mmHg 69%
10:00 +9°C° 0 mm 8 mps 765 mmHg 67%
11:00 +10°C° 0 mm 8 mps 765 mmHg 65%
12:00 +10°C° 0 mm 8 mps 765 mmHg 63%
13:00 +10°C° 0.1 mm 7 mps 765 mmHg 64%
14:00 +9°C° 0.1 mm 6 mps 765 mmHg 66%
15:00 +9°C° 0.1 mm 5 mps 766 mmHg 68%
16:00 +8°C° 0 mm 5 mps 766 mmHg 70%
17:00 +8°C° 0 mm 5 mps 766 mmHg 72%
18:00 +7°C° 0 mm 5 mps 766 mmHg 74%
19:00 +7°C° 0 mm 6 mps 766 mmHg 73%
20:00 +6°C° 0 mm 7 mps 766 mmHg 73%
21:00 +6°C° 0 mm 8 mps 766 mmHg 72%
22:00 +6°C° 0 mm 7 mps 766 mmHg 74%
23:00 +5°C° 0 mm 6 mps 766 mmHg 76%

4 November, Wednesday

Time Temperature Precipitation Wind Pressure Humidity
00:00 +5°C° 0 mm 6 mps 766 mmHg 77%
01:00 +5°C° 0 mm 6 mps 766 mmHg 79%
02:00 +6°C° 0 mm 5 mps 767 mmHg 80%
03:00 +5°C° 0 mm 5 mps 767 mmHg 81%
04:00 +5°C° 0 mm 5 mps 767 mmHg 84%
05:00 +5°C° 0 mm 4 mps 768 mmHg 87%
06:00 +4°C° 0 mm 4 mps 768 mmHg 90%
07:00 +5°C° 0 mm 3 mps 769 mmHg 87%
08:00 +7°C° 0 mm 3 mps 769 mmHg 84%
09:00 +7°C° 0 mm 3 mps 770 mmHg 80%
10:00 +8°C° 0 mm 3 mps 770 mmHg 76%
11:00 +9°C° 0 mm 2 mps 770 mmHg 71%
12:00 +10°C° 0 mm 2 mps 770 mmHg 67%
13:00 +11°C° 0 mm 1 mps 771 mmHg 68%
14:00 +11°C° 0 mm 1 mps 771 mmHg 69%
15:00 +11°C° 0 mm 1 mps 771 mmHg 70%
16:00 +10°C° 0 mm 1 mps 772 mmHg 73%
17:00 +9°C° 0 mm 1 mps 772 mmHg 76%
18:00 +8°C° 0 mm 1 mps 773 mmHg 79%
19:00 +7°C° 0 mm 1 mps 773 mmHg 80%
20:00 +7°C° 0 mm 1 mps 773 mmHg 82%
21:00 +7°C° 0 mm 1 mps 774 mmHg 84%
22:00 +7°C° 0 mm 1 mps 774 mmHg 84%
23:00 +6°C° 0 mm 1 mps 774 mmHg 85%

5 November, Thursday

Time Temperature Precipitation Wind Pressure Humidity
00:00 +6°C° 0 mm 1 mps 775 mmHg 85%
01:00 +6°C° 0 mm 1 mps 775 mmHg 86%
02:00 +6°C° 0 mm 1 mps 775 mmHg 86%
03:00 +6°C° 0 mm 1 mps 775 mmHg 87%
04:00 +5°C° 0 mm 1 mps 776 mmHg 87%
05:00 +5°C° 0 mm 1 mps 776 mmHg 87%
06:00 +5°C° 0 mm 1 mps 776 mmHg 87%
07:00 +6°C° 0 mm 1 mps 777 mmHg 83%
08:00 +7°C° 0 mm 1 mps 777 mmHg 79%
09:00 +8°C° 0 mm 1 mps 777 mmHg 75%
10:00 +9°C° 0 mm 1 mps 777 mmHg 71%
11:00 +10°C° 0 mm 1 mps 777 mmHg 67%
12:00 +10°C° 0 mm 2 mps 777 mmHg 64%
13:00 +10°C° 0 mm 2 mps 777 mmHg 67%
14:00 +10°C° 0 mm 2 mps 777 mmHg 70%
15:00 +10°C° 0 mm 2 mps 777 mmHg 72%
16:00 +8°C° 0 mm 2 mps 777 mmHg 77%
17:00 +7°C° 0 mm 2 mps 777 mmHg 82%
18:00 +6°C° 0 mm 2 mps 777 mmHg 87%
19:00 +6°C° 0 mm 2 mps 777 mmHg 88%
20:00 +5°C° 0 mm 3 mps 777 mmHg 89%
21:00 +5°C° 0 mm 3 mps 777 mmHg 90%
22:00 +4°C° 0 mm 3 mps 777 mmHg 90%
23:00 +4°C° 0 mm 3 mps 777 mmHg 91%
Show more